Location: Unspecified
(0.0000°N, 0.0000°E)
Time: 15:46:27
(UTC+00:00)

deb Delta 126 - Pass Details

Date: 14 February 2026
Orbit: 1137 x 1258 km, 102.0° (Epoch: 9 March)

Event Time Altitude Azimuth Distance (km) Brightness Sun altitude
Rises 02:26:23 0° 147° (SSE) 4,184 ? -54.7°
Reaches altitude 10° 02:29:14 10° 140° (SE) 3,225 ? -54.1°
Enters shadow 02:30:12 14° 136° (SE) 2,916 ? -53.9°
